Miscellaneous Local Product
Issued by NWS Hastings, NE

Home | Current Version | Previous Version | Graphics & Text | Print | Product List | Glossary On
Versions: 1 2 3 4 5 6 7 8 9 10 11 12 13 14 15 16 17 18 19 20 21 22 23 24 25 26 27 28 29 30 31 32 33 34 35 36 37 38 39 40 41 42 43 44 45 46 47 48 49 50
000
AXUS43 KGID 232002
MISGRI

GID CWA HOURLY WEATHER ROUNDUP
NATIONAL WEATHER SERVICE HASTINGS NE
200 PM CST SUN NOV 23 2014

NOTE: "FAIR" INDICATES FEW OR NO CLOUDS BELOW 12,000 FEET WITH NO
SIGNIFICANT WEATHER AND/OR OBSTRUCTIONS TO VISIBILITY.

...SOUTH CENTRAL NEBRASKA...

CITY           SKY/WX    TMP DP  RH WIND       PRES   REMARKS
GRAND ISLAND   CLOUDY    44  31  60 N25G32    29.57S
HASTINGS       CLOUDY    43  32  65 N23G31    29.56S
KEARNEY        CLOUDY    45  25  45 NW29G36   29.60S
ORD            CLOUDY    46  24  42 N29G36    29.57F
YORK           CLOUDY    43  37  81 N16       29.53F
AURORA         CLOUDY    42  35  74 N18G30    29.54F
LEXINGTON      CLOUDY    48  20  33 N28G37    29.61F
HOLDREGE       CLOUDY    46  25  44 N22G31    29.59F
HEBRON         RAIN      41  36  83 N17G28    29.54S

...NEBRASKA PANHANDLE...

CITY           SKY/WX    TMP DP  RH WIND       PRES   REMARKS
CHADRON        SUNNY     41  22  46 NW30G44   29.77R
ALLIANCE       SUNNY     43  13  29 NW29G43   29.72F
SCOTTSBLUFF    SUNNY     45  12  26 NW31G44   29.76F
SIDNEY         SUNNY     44  13  28 N29G38    29.75S

...WESTERN AND NORTH CENTRAL NEBRASKA...

CITY           SKY/WX    TMP DP  RH WIND       PRES   REMARKS
VALENTINE      MOSUNNY   47  21  35 NW26G41   29.64F
AINSWORTH      PTSUNNY   46  21  37 NW25G33   29.62F
ONEILL         CLOUDY    45  30  55 NW26G35   29.59F
BROKEN BOW     CLOUDY    48  22  35 N33G40    29.59F
IMPERIAL       PTSUNNY   48  11  22 N31G41    29.68F
NORTH PLATTE   PTSUNNY   49  17  28 N29G39    29.65F
MCCOOK         CLOUDY    49  18  29 N29G37    29.63F

...EASTERN NEBRASKA...

CITY           SKY/WX    TMP DP  RH WIND       PRES   REMARKS
NORFOLK        CLOUDY    44  34  67 NW23G29   29.52F
SO SIOUX CITY  LGT RAIN  44  37  76 NW17      29.50R
TEKAMAH        CLOUDY    45  36  70 NW21      29.51R
COLUMBUS       CLOUDY    43  32  65 N21       29.54S
ALBION         CLOUDY    43  30  59 NW25G35   29.54F
OMAHA EPPLEY   CLOUDY    46  37  71 N25G33    29.48S
OFFUTT AFB     PTSUNNY   46  37  71 NW21G29   29.45F
MILLARD        CLOUDY    47  37  70 NW13G26   29.48S
LINCOLN        CLOUDY    44  35  70 N30G38    29.51F
NEBRASKA CITY  CLOUDY    45  39  80 N23G37    29.44R
BEATRICE       CLOUDY    45  36  72 N26G35    29.49F
FALLS CITY     CLOUDY    48  42  80 N16G31    29.41R

...NORTHERN KANSAS...

CITY           SKY/WX    TMP DP  RH WIND       PRES   REMARKS
GOODLAND       PTSUNNY   45  10  24 N30G47    29.69R
HILL CITY      CLOUDY    48  23  37 N29G39    29.61S
NORTON         CLEAR     48  18  29 N28G37    29.60S
PHILLIPSBURG   PTSUNNY   48  28  46 N26G35    29.59F
SMITH CENTER   CLOUDY    43  34  70 N17       29.58F
BELOIT         CLOUDY    43  39  87 N17       29.55S
HAYS           CLOUDY    45  30  57 N31G37    29.57F
RUSSELL        CLOUDY    42  38  85 N21G30    29.55F
CONCORDIA      LGT RAIN  41  38  89 N21G29    29.53F FOG
SALINA         LGT RAIN  45  38  76 N30G38    29.50R
TOPEKA         CLOUDY    56  55  97 W6        29.36F



USA.gov is the U.S. government's official web portal to all federal, state and local government web resources and services.